Location: Lussas
(44.6119°N, 4.4726°E)
Time: 14:46:22
(UTC+00:00)

SKYMED 2 - Pass Details

Date: 26 November 2020
Orbit: 621 x 623 km, 97.9° (Epoch: 28 January)

Event Time Altitude Azimuth Distance (km) Brightness Sun altitude
Rises 04:53:06 0° 167° (SSE) 2,888 7.3 -20.9°
Reaches altitude 10° 04:55:17 10° 168° (SSE) 1,987 6.4 -20.5°
Maximum altitude 04:59:36 84° 257° (WSW) 632 3.4 -19.8°
Enters shadow 05:03:00 17° 345° (NNW) 1,607 5.4 -19.2°
